PST,Max TemperatureF,Mean TemperatureF,Min TemperatureF,Max Dew PointF,MeanDew PointF,Min DewpointF,Max Humidity, Mean Humidity, Min Humidity, Max Sea Level PressureIn, Mean Sea Level PressureIn, Min Sea Level PressureIn, Max VisibilityMiles, Mean VisibilityMiles, Min VisibilityMiles, Max Wind SpeedMPH, Mean Wind SpeedMPH, Max Gust SpeedMPH,PrecipitationIn, CloudCover, Events, WindDirDegrees
2012-11-1,66,60,55,59,55,46,94,85,68,30.07,30.03,30.00,10,9,4,8,3,,0.04,5,Rain,299
2012-11-2,64,56,48,52,46,45,93,77,56,30.10,30.07,30.04,10,10,10,9,2,,0.00,1,,305
2012-11-3,73,62,50,54,48,46,87,76,44,30.16,30.12,30.08,10,10,10,12,1,,0.00,1,,319
2012-11-4,77,65,53,59,52,50,88,74,41,30.22,30.17,30.13,10,10,10,8,1,,0.00,0,,319
2012-11-5,80,68,55,57,53,50,88,74,39,30.16,30.11,30.04,10,10,10,6,1,,0.00,0,,344
2012-11-6,77,65,53,57,53,48,88,76,44,30.09,30.05,30.00,10,10,10,6,1,,0.00,0,,333
2012-11-7,62,56,50,55,51,48,100,84,72,30.08,30.03,29.98,10,9,1,12,4,,0.00,4,,267
2012-11-8,59,52,46,48,43,39,93,69,51,29.99,29.96,29.92,10,10,4,16,6,20,0.00,5,Rain,259
2012-11-9,55,50,46,45,41,32,93,75,41,30.01,29.95,29.91,10,10,6,14,3,20,0.01,4,Rain,277
2012-11-10,57,52,44,41,39,32,81,65,38,30.26,30.11,30.01,10,10,10,15,6,20,0.00,1,,271
2012-11-11,59,49,39,41,38,32,93,73,36,30.39,30.33,30.27,10,10,10,6,2,,0.00,1,,297
2012-11-12,60,50,41,41,39,37,93,71,42,30.39,30.34,30.26,10,10,10,17,1,,0.00,0,,311
2012-11-13,66,55,44,43,38,32,76,63,30,30.28,30.20,30.10,10,10,10,6,1,,0.00,1,,322
2012-11-14,66,57,48,50,43,39,82,68,49,30.13,30.09,30.03,10,10,10,6,1,,0.00,1,,185
2012-11-15,64,55,46,50,44,41,87,72,48,30.03,30.00,29.96,10,10,10,10,2,,0.00,2,,154
2012-11-16,64,58,53,57,52,46,100,83,64,30.01,29.95,29.86,10,10,4,15,2,20,0.00,7,Rain,136
2012-11-17,62,58,53,57,56,52,100,95,68,30.03,29.90,29.82,10,6,2,18,7,29,0.36,8,Rain,172
2012-11-18,62,56,50,52,48,39,100,78,45,30.19,30.11,30.03,10,10,7,8,2,,0.00,7,Rain,217
2012-11-19,66,58,50,50,47,45,88,72,46,30.23,30.19,30.17,10,10,10,12,3,16,0.00,5,,155
2012-11-20,66,60,55,57,53,48,88,79,68,30.18,30.12,30.05,10,10,2,17,7,22,0.00,7,Rain,157
2012-11-21,64,56,48,59,53,41,100,87,52,30.22,30.13,30.05,10,7,2,12,5,,0.17,5,Rain,279
2012-11-22,64,54,44,48,45,43,100,82,45,30.27,30.22,30.19,10,10,10,7,1,,0.00,1,,309
2012-11-23,66,55,44,50,46,45,100,83,49,30.27,30.23,30.17,10,10,10,7,1,,0.00,0,,217
2012-11-24,68,56,44,50,46,45,100,81,46,30.20,30.13,30.05,10,10,10,6,1,,0.00,0,,311
2012-11-25,59,52,46,54,48,45,100,92,77,30.05,30.01,29.95,10,9,1,6,1,,0.00,3,,205
2012-11-26,62,53,44,54,48,45,100,92,68,30.09,30.04,29.99,10,6,0,8,1,,0.00,5,Fog,5
2012-11-27,62,56,50,50,49,46,100,81,59,30.12,30.07,30.00,10,7,4,12,3,18,0.00,6,,155
2012-11-28,62,58,53,57,50,46,94,78,63,30.06,29.96,29.85,10,9,2,24,8,30,0.00,5,Rain,145
2012-11-29,62,58,53,57,53,50,100,84,72,30.06,30.00,29.89,10,9,1,17,8,28,0.00,5,Rain,138
2012-11-30,62,60,57,61,57,54,100,88,72,30.03,29.90,29.82,10,5,2,24,12,38,0.14,7,Rain,172